DLH6SL ESGG-EDDH

Flight info

Callsign DLH6SL
Flight time 0h 44m
Altitude 38000
Route VADIN DCT ALASA M852 EKERN T905 BOGMU BOGMU3P
Aircraft A333/H-SDE3GHIJ2J3J5M1RVWXY/LB2D1

Departure

Time 2026-04-26 17:51
Airport Göteborg Landvetter Airport (ESGG)

Arrival

Time 2026-04-26 18:35
Airport Hamburg Helmut Schmidt Airport (EDDH)
Time Latitude Longitude Altitude Speed Heading
2026-04-26 17:03 57.67209 12.29683 535 ft 0 kts 116°
2026-04-26 17:42 57.67211 12.29674 535 ft 4 kts 117°
2026-04-26 17:42 57.67223 12.29629 535 ft 4 kts 110°
2026-04-26 17:42 57.67228 12.29587 535 ft 4 kts 60°
2026-04-26 17:43 57.67223 12.29575 535 ft 0 kts 26°
2026-04-26 17:44 57.67224 12.29575 535 ft 0 kts 26°
2026-04-26 17:45 57.67224 12.29576 535 ft 0 kts 26°
2026-04-26 17:45 57.67225 12.29576 535 ft 1 kts 26°
2026-04-26 17:46 57.67260 12.29609 535 ft 8 kts 26°
2026-04-26 17:46 57.67318 12.29661 536 ft 10 kts 21°
2026-04-26 17:46 57.67346 12.29642 536 ft 4 kts 322°
2026-04-26 17:46 57.67368 12.29604 536 ft 5 kts 316°
2026-04-26 17:47 57.67390 12.29570 536 ft 0 kts 319°
2026-04-26 17:47 57.67401 12.29511 536 ft 8 kts 292°
2026-04-26 17:47 57.67437 12.29433 536 ft 8 kts 334°
2026-04-26 17:48 57.67483 12.29433 537 ft 7 kts 14°
2026-04-26 17:48 57.67552 12.29448 537 ft 11 kts 345°
2026-04-26 17:48 57.67585 12.29346 537 ft 9 kts 266°
2026-04-26 17:48 57.67573 12.29224 537 ft 11 kts 256°
2026-04-26 17:49 57.67530 12.29118 535 ft 8 kts 212°
2026-04-26 17:49 57.67528 12.29116 535 ft 0 kts 211°
2026-04-26 17:50 57.67469 12.29059 534 ft 33 kts 208°
2026-04-26 17:50 57.67053 12.28673 534 ft 99 kts 207°
2026-04-26 17:50 57.66266 12.27887 522 ft 156 kts 205°
2026-04-26 17:51 57.65138 12.26960 750 ft 192 kts 205°
2026-04-26 17:51 57.63858 12.25886 1338 ft 209 kts 203°
2026-04-26 17:51 57.62444 12.24842 1970 ft 227 kts 199°
2026-04-26 17:51 57.60829 12.24241 2564 ft 250 kts 182°
2026-04-26 17:52 57.59030 12.23990 3120 ft 268 kts 184°
2026-04-26 17:52 57.57101 12.23706 3610 ft 288 kts 184°
2026-04-26 17:52 57.55089 12.23367 4405 ft 285 kts 184°
2026-04-26 17:52 57.53168 12.22915 5102 ft 275 kts 188°
2026-04-26 17:53 57.51293 12.22369 5930 ft 278 kts 188°
2026-04-26 17:53 57.49359 12.21846 6906 ft 281 kts 187°
2026-04-26 17:53 57.47413 12.21369 7815 ft 286 kts 187°
2026-04-26 17:54 57.43496 12.19660 9514 ft 292 kts 211°
2026-04-26 17:54 57.41904 12.17417 10414 ft 288 kts 226°
2026-04-26 17:54 57.40434 12.14737 10976 ft 303 kts 228°
2026-04-26 17:54 57.38912 12.11841 11345 ft 323 kts 228°
2026-04-26 17:55 57.37316 12.08820 11940 ft 334 kts 228°
2026-04-26 17:55 57.35670 12.05728 12699 ft 339 kts 228°
2026-04-26 17:55 57.33992 12.02586 13489 ft 343 kts 228°
2026-04-26 17:55 57.32309 11.99439 14257 ft 347 kts 228°
2026-04-26 17:56 57.30615 11.96278 14848 ft 350 kts 229°
2026-04-26 17:56 57.27157 11.89824 16115 ft 356 kts 229°
2026-04-26 17:57 57.23643 11.83290 17582 ft 362 kts 229°
2026-04-26 17:57 57.21854 11.79971 18277 ft 365 kts 229°
2026-04-26 17:57 57.20057 11.76642 18907 ft 369 kts 229°
2026-04-26 17:57 57.18235 11.73270 19511 ft 372 kts 229°
2026-04-26 17:58 57.12268 11.63779 21307 ft 392 kts 212°
2026-04-26 17:59 57.07193 11.59585 22313 ft 406 kts 205°
2026-04-26 17:59 57.04535 11.57719 22857 ft 410 kts 204°
2026-04-26 17:59 57.01864 11.55857 23412 ft 413 kts 204°
2026-04-26 17:59 56.99211 11.53968 23903 ft 416 kts 205°
2026-04-26 18:00 56.96509 11.51993 24345 ft 418 kts 205°
2026-04-26 18:00 56.93820 11.49986 24805 ft 420 kts 206°
2026-04-26 18:00 56.91122 11.47947 25238 ft 422 kts 206°
2026-04-26 18:00 56.88396 11.45874 25666 ft 424 kts 206°
2026-04-26 18:01 56.85674 11.43800 26093 ft 426 kts 206°
2026-04-26 18:01 56.82939 11.41718 26510 ft 427 kts 206°
2026-04-26 18:01 56.80177 11.39622 26924 ft 430 kts 206°
2026-04-26 18:01 56.77406 11.37524 27331 ft 432 kts 205°
2026-04-26 18:02 56.74625 11.35425 27742 ft 434 kts 205°
2026-04-26 18:02 56.73722 11.34744 27873 ft 435 kts 205°
2026-04-26 18:02 56.69061 11.31238 28536 ft 438 kts 205°
2026-04-26 18:02 56.66235 11.29117 28925 ft 440 kts 205°
2026-04-26 18:03 56.63399 11.26992 29309 ft 443 kts 205°
2026-04-26 18:03 56.60547 11.24859 29695 ft 445 kts 205°
2026-04-26 18:03 56.57675 11.22713 30055 ft 447 kts 205°
2026-04-26 18:03 56.54801 11.20571 30418 ft 449 kts 205°
2026-04-26 18:04 56.51894 11.18406 30719 ft 451 kts 205°
2026-04-26 18:04 56.48986 11.16245 31019 ft 453 kts 205°
2026-04-26 18:04 56.46061 11.14076 31230 ft 456 kts 205°
2026-04-26 18:05 56.41172 11.10459 31254 ft 456 kts 205°
2026-04-26 18:05 56.34337 11.05407 31627 ft 459 kts 205°
2026-04-26 18:05 56.31380 11.03229 31947 ft 461 kts 205°
2026-04-26 18:06 56.29366 11.01748 32160 ft 462 kts 205°
2026-04-26 18:06 56.26384 10.99561 32469 ft 464 kts 205°
2026-04-26 18:06 56.23383 10.97362 32797 ft 465 kts 205°
2026-04-26 18:06 56.20395 10.95175 33206 ft 463 kts 205°
2026-04-26 18:07 56.17461 10.93029 33615 ft 462 kts 205°
2026-04-26 18:07 56.14483 10.90851 33946 ft 464 kts 205°
2026-04-26 18:07 56.11486 10.88662 34054 ft 469 kts 205°
2026-04-26 18:08 56.05366 10.84214 34224 ft 479 kts 204°
2026-04-26 18:08 55.99090 10.79685 34251 ft 492 kts 204°
2026-04-26 18:09 55.92719 10.75099 34249 ft 494 kts 204°
2026-04-26 18:09 55.86397 10.70560 34253 ft 494 kts 204°
2026-04-26 18:10 55.80032 10.66003 34249 ft 493 kts 204°
2026-04-26 18:10 55.73661 10.61460 34257 ft 493 kts 204°
2026-04-26 18:11 55.67282 10.56938 34256 ft 493 kts 204°
2026-04-26 18:11 55.60948 10.52455 34090 ft 481 kts 204°
2026-04-26 18:11 55.57874 10.50289 33647 ft 472 kts 204°
2026-04-26 18:12 55.54840 10.48149 33186 ft 466 kts 204°
2026-04-26 18:12 55.51841 10.46031 32744 ft 463 kts 204°
2026-04-26 18:12 55.48894 10.43949 32359 ft 466 kts 204°
2026-04-26 18:12 55.45870 10.41820 31976 ft 465 kts 204°
2026-04-26 18:13 55.42867 10.39761 31583 ft 462 kts 204°
2026-04-26 18:13 55.39895 10.37728 31203 ft 455 kts 204°
2026-04-26 18:13 55.36943 10.35802 30829 ft 448 kts 202°
2026-04-26 18:13 55.35011 10.34587 30584 ft 443 kts 202°
2026-04-26 18:14 55.31178 10.32139 30003 ft 433 kts 203°
2026-04-26 18:14 55.28390 10.30285 29584 ft 426 kts 204°
2026-04-26 18:14 55.25639 10.28396 29171 ft 420 kts 204°
2026-04-26 18:14 55.22952 10.26508 28754 ft 414 kts 205°
2026-04-26 18:15 55.20309 10.24628 28338 ft 408 kts 205°
2026-04-26 18:15 55.17698 10.22762 27947 ft 403 kts 205°
2026-04-26 18:15 55.15147 10.20940 27537 ft 398 kts 205°
2026-04-26 18:15 55.12597 10.19122 27154 ft 393 kts 205°
2026-04-26 18:16 55.10076 10.17331 26776 ft 389 kts 205°
2026-04-26 18:16 55.05110 10.13818 25987 ft 381 kts 205°
2026-04-26 18:16 55.02668 10.12097 25616 ft 377 kts 205°
2026-04-26 18:17 55.00247 10.10394 25248 ft 374 kts 205°
2026-04-26 18:17 54.97848 10.08708 24875 ft 370 kts 205°
2026-04-26 18:17 54.95461 10.07034 24520 ft 369 kts 205°
2026-04-26 18:17 54.93087 10.05371 24176 ft 367 kts 205°
2026-04-26 18:18 54.90755 10.03742 23831 ft 366 kts 205°
2026-04-26 18:18 54.88397 10.02099 23428 ft 364 kts 205°
2026-04-26 18:18 54.86018 10.00441 23295 ft 362 kts 205°
2026-04-26 18:18 54.83713 9.98837 23281 ft 362 kts 205°
2026-04-26 18:19 54.81349 9.97316 23301 ft 369 kts 199°
2026-04-26 18:19 54.78781 9.96172 23293 ft 391 kts 195°
2026-04-26 18:19 54.76061 9.95162 23296 ft 408 kts 193°
2026-04-26 18:19 54.73234 9.94241 23295 ft 414 kts 192°
2026-04-26 18:20 54.70393 9.93372 23296 ft 415 kts 192°
2026-04-26 18:20 54.67545 9.92511 23294 ft 415 kts 192°
2026-04-26 18:20 54.64699 9.91638 23298 ft 415 kts 192°
2026-04-26 18:20 54.62817 9.91055 23298 ft 415 kts 192°
2026-04-26 18:21 54.59021 9.89864 23280 ft 415 kts 192°
2026-04-26 18:21 54.56209 9.88972 23291 ft 414 kts 192°
2026-04-26 18:21 54.53369 9.88172 23309 ft 416 kts 186°
2026-04-26 18:21 54.50473 9.88274 23288 ft 419 kts 172°
2026-04-26 18:22 54.47667 9.89593 22996 ft 416 kts 159°
2026-04-26 18:22 54.45018 9.91503 22587 ft 410 kts 155°
2026-04-26 18:22 54.42452 9.93524 22194 ft 404 kts 154°
2026-04-26 18:22 54.39918 9.95560 21802 ft 399 kts 154°
2026-04-26 18:23 54.37433 9.97566 21400 ft 393 kts 154°
2026-04-26 18:23 54.34974 9.99553 21020 ft 388 kts 154°
2026-04-26 18:23 54.32549 10.01533 20614 ft 383 kts 154°
2026-04-26 18:23 54.30152 10.03418 20239 ft 377 kts 155°
2026-04-26 18:24 54.27814 10.05166 19877 ft 373 kts 156°
2026-04-26 18:24 54.25470 10.06870 19515 ft 368 kts 157°
2026-04-26 18:24 54.23118 10.08551 19156 ft 364 kts 157°
2026-04-26 18:24 54.20796 10.10196 18798 ft 360 kts 157°
2026-04-26 18:25 54.18468 10.11838 18231 ft 362 kts 157°
2026-04-26 18:25 54.16128 10.13486 17547 ft 366 kts 157°
2026-04-26 18:25 54.13766 10.15149 16845 ft 370 kts 156°
2026-04-26 18:25 54.11382 10.16828 16150 ft 373 kts 156°
2026-04-26 18:26 54.08983 10.18514 15466 ft 371 kts 156°
2026-04-26 18:26 54.06644 10.20149 14812 ft 362 kts 156°
2026-04-26 18:26 54.04324 10.21758 14143 ft 350 kts 156°
2026-04-26 18:26 54.02132 10.23270 13438 ft 339 kts 156°
2026-04-26 18:27 53.99978 10.24755 12688 ft 331 kts 156°
2026-04-26 18:27 53.97859 10.26216 11955 ft 324 kts 156°
2026-04-26 18:27 53.95789 10.27643 11221 ft 319 kts 156°
2026-04-26 18:27 53.93758 10.29044 10532 ft 314 kts 156°
2026-04-26 18:28 53.91747 10.30432 9793 ft 309 kts 156°
2026-04-26 18:28 53.89774 10.31794 9037 ft 305 kts 156°
2026-04-26 18:28 53.87829 10.33138 8279 ft 300 kts 156°
2026-04-26 18:28 53.85933 10.34448 7561 ft 295 kts 156°
2026-04-26 18:29 53.84008 10.35535 6836 ft 288 kts 169°
2026-04-26 18:29 53.82047 10.35518 6075 ft 278 kts 194°
2026-04-26 18:29 53.80344 10.34179 5329 ft 267 kts 217°
2026-04-26 18:29 53.79042 10.32040 4586 ft 260 kts 226°
2026-04-26 18:30 53.77869 10.29729 3841 ft 255 kts 228°
2026-04-26 18:30 53.76803 10.27394 3233 ft 247 kts 233°
2026-04-26 18:30 53.75867 10.25092 3004 ft 226 kts 232°
2026-04-26 18:30 53.74958 10.23142 2978 ft 203 kts 228°
2026-04-26 18:31 53.74097 10.21420 2994 ft 178 kts 227°
2026-04-26 18:31 53.73316 10.19882 2998 ft 169 kts 228°
2026-04-26 18:31 53.72586 10.18383 2926 ft 166 kts 231°
2026-04-26 18:31 53.71894 10.16859 2717 ft 165 kts 230°
2026-04-26 18:32 53.71155 10.15346 2470 ft 167 kts 229°
2026-04-26 18:32 53.70404 10.13845 2216 ft 167 kts 230°
2026-04-26 18:32 53.69666 10.12340 1994 ft 168 kts 231°
2026-04-26 18:32 53.68914 10.10808 1756 ft 170 kts 231°
2026-04-26 18:33 53.68161 10.09279 1504 ft 170 kts 231°
2026-04-26 18:33 53.67411 10.07749 1294 ft 171 kts 231°
2026-04-26 18:33 53.66652 10.06200 1048 ft 171 kts 231°
2026-04-26 18:33 53.65899 10.04662 830 ft 170 kts 231°
2026-04-26 18:34 53.65154 10.03096 656 ft 172 kts 230°
2026-04-26 18:34 53.64396 10.01558 378 ft 169 kts 227°
2026-04-26 18:34 53.63673 10.00122 113 ft 151 kts 230°
2026-04-26 18:34 53.63037 9.98877 44 ft 128 kts 229°
2026-04-26 18:35 53.62602 9.97946 45 ft 73 kts 232°
2026-04-26 18:35 53.62404 9.97540 44 ft 17 kts 224°
2026-04-26 18:35 53.62365 9.97469 44 ft 14 kts 226°
2026-04-26 18:35 53.62271 9.97376 44 ft 18 kts 187°
2026-04-26 18:36 53.62185 9.97494 48 ft 15 kts 104°
2026-04-26 18:36 53.62217 9.97645 47 ft 15 kts 57°
2026-04-26 18:36 53.62235 9.97692 47 ft 5 kts 56°
2026-04-26 18:36 53.62260 9.97753 45 ft 7 kts 53°
2026-04-26 18:37 53.62301 9.97836 49 ft 11 kts 50°
2026-04-26 18:37 53.62354 9.97941 49 ft 13 kts 50°
2026-04-26 18:37 53.62421 9.98063 50 ft 18 kts 42°
2026-04-26 18:37 53.62550 9.98274 44 ft 32 kts 47°
2026-04-26 18:38 53.62724 9.98519 46 ft 30 kts 38°
2026-04-26 18:38 53.62760 9.98658 47 ft 5 kts 71°
2026-04-26 18:38 53.62788 9.98747 45 ft 11 kts 54°
2026-04-26 18:38 53.62846 9.98863 50 ft 16 kts 50°
2026-04-26 18:39 53.62948 9.99075 47 ft 29 kts 51°
2026-04-26 18:39 53.63060 9.99312 48 ft 17 kts 57°
2026-04-26 18:39 53.63158 9.99525 47 ft 14 kts 55°
2026-04-26 18:39 53.63184 9.99585 47 ft 0 kts 54°
2026-04-26 18:40 53.63191 9.99602 49 ft 4 kts 54°
2026-04-26 18:40 53.63218 9.99699 48 ft 9 kts 81°
2026-04-26 18:40 53.63212 9.99738 49 ft 0 kts 110°
2026-04-26 18:41 53.63208 9.99750 50 ft 2 kts 117°
2026-04-26 18:41 53.63180 9.99789 51 ft 12 kts 146°
2026-04-26 18:41 53.63058 9.99914 51 ft 22 kts 152°
2026-04-26 18:41 53.63036 9.99934 52 ft 3 kts 151°
2026-04-26 18:42 53.63010 9.99958 48 ft 0 kts 152°
2026-04-26 18:42 53.62990 9.99976 47 ft 8 kts 150°
2026-04-26 18:42 53.62975 10.00062 48 ft 9 kts 64°
2026-04-26 18:42 53.62992 10.00090 49 ft 4 kts 43°
2026-04-26 18:43 53.62997 10.00099 51 ft 0 kts 47°
2026-04-26 18:43 53.62995 10.00133 48 ft 5 kts 105°
2026-04-26 18:43 53.62971 10.00186 45 ft 7 kts 131°
2026-04-26 18:43 53.62934 10.00252 48 ft 8 kts 127°